WODKAN Weather Reports


time (UTC)temp
F
wind
direction
speed
knots
gust
knots
rain 1hr
in
rain 24hr
in
rain mn
in
humidity
%
barometer
mb
20260504171843 76 219 0.9 4.3 0.00 0.00 0.00 38 1009.9
20260504171346 77 246 0.9 2.6 0.00 0.00 0.00 38 1009.8
20260504170908 77 247 0.9 3.5 0.00 0.00 0.00 37 1009.8
20260504170406 78 247 0.0 3.5 0.00 0.00 0.00 37 1009.8
20260504160337 79 248 2.6 6.1 0.00 0.00 0.00 35 1009.9
20260504150839 81 261 1.7 8.7 0.00 0.00 0.00 35 1010.2
20260504150343 81 284 3.5 8.7 0.00 0.00 0.00 35 1010.2
20260504140902 81 205 3.5 7.0 0.00 0.00 0.00 35 1010.4
20260504140328 81 200 0.9 8.7 0.00 0.00 0.00 37 1010.6
20260504130359 80 277 1.7 7.0 0.00 0.00 0.00 39 1010.9
20260504110347 77 276 5.2 8.7 0.00 0.00 0.00 38 1011.9
20260504100338 76 280 4.3 8.7 0.00 0.00 0.00 41 1012.4
20260504081856 72 193 3.5 7.8 0.00 0.00 0.00 44 1012.6
20260504081340 72 207 2.6 6.1 0.00 0.00 0.00 43 1012.6
20260504080839 72 234 3.5 7.0 0.00 0.00 0.00 44 1012.6
20260504080333 71 232 4.3 7.0 0.00 0.00 0.00 44 1012.5
20260504070333 67 200 1.7 7.0 0.00 0.00 0.00 48 1012.6
20260504050337 59 211 1.7 4.3 0.00 0.00 0.00 54 1012.4
20260504045849 59 237 0.9 4.3 0.00 0.00 0.00 55 1012.4
20260504045331 58 240 1.7 4.3 0.00 0.00 0.00 55 1012.4
20260504044853 58 236 0.9 6.1 0.00 0.00 0.00 56 1012.4
20260504044331 57 219 1.7 4.3 0.00 0.00 0.00 57 1012.3
20260504043830 57 212 0.0 0.0 0.00 0.00 0.00 57 1012.3
20260504043334 57 212 0.0 0.0 0.00 0.00 0.00 58 1012.3
20260504042857 56 211 0.0 0.0 0.00 0.00 0.00 59 1012.3
20260504042339 55 211 0.0 0.0 0.00 0.00 0.00 60 1012.3
20260504041838 55 211 0.0 0.0 0.00 0.00 0.00 61 1012.2
20260504041336 54 211 0.0 0.0 0.00 0.00 0.00 62 1012.2
20260504040835 53 211 0.0 0.0 0.00 0.00 0.00 63 1012.2
20260504040339 52 211 0.0 0.0 0.00 0.00 0.00 64 1012.2
20260504035850 52 211 0.0 0.0 0.00 0.00 0.00 65 1012.1
20260504035348 52 211 0.0 0.0 0.00 0.00 0.00 66 1012.1
20260504034831 51 211 0.0 0.0 0.00 0.00 0.00 66 1012.1
20260504034332 51 211 0.0 0.0 0.00 0.00 0.00 67 1012.0
20260504033832 51 211 0.0 0.0 0.00 0.00 0.00 67 1012.1
20260504033331 51 211 0.0 0.0 0.00 0.00 0.00 68 1012.1
20260504032834 51 211 0.0 0.0 0.00 0.00 0.00 69 1012.0
20260504032335 51 211 0.0 0.0 0.00 0.00 0.00 67 1012.0
20260504031835 51 211 0.0 0.0 0.00 0.00 0.00 66 1012.1
20260504031337 51 211 0.0 0.0 0.00 0.00 0.00 65 1012.1
20260504030836 51 211 0.0 0.0 0.00 0.00 0.00 65 1012.1
20260504030338 52 211 0.0 0.0 0.00 0.00 0.00 65 1012.1
20260504025832 52 211 0.0 0.0 0.00 0.00 0.00 64 1012.1
20260504025353 52 211 0.0 0.0 0.00 0.00 0.00 62 1012.1
20260504024832 53 211 0.0 0.0 0.00 0.00 0.00 62 1012.1
20260504024332 53 211 0.0 0.0 0.00 0.00 0.00 61 1012.1
20260504023836 53 211 0.0 0.0 0.00 0.00 0.00 61 1012.1
20260504023337 54 211 0.0 0.0 0.00 0.00 0.00 61 1012.1
20260504022837 54 211 0.0 0.0 0.00 0.00 0.00 60 1012.1
20260504022341 54 211 0.0 0.0 0.00 0.00 0.00 60 1012.1
20260504021845 54 211 0.0 0.0 0.00 0.00 0.00 60 1012.1
20260504021346 54 211 0.0 0.0 0.00 0.00 0.00 59 1012.1
20260504020845 54 211 0.0 0.0 0.00 0.00 0.00 59 1012.1
20260504020347 54 211 0.0 0.0 0.00 0.00 0.00 59 1012.1
20260504015838 55 211 0.0 0.0 0.00 0.00 0.00 59 1012.1
20260504015341 55 211 0.0 0.0 0.00 0.00 0.00 59 1012.1
20260504014843 55 211 0.0 3.5 0.00 0.00 0.00 59 1012.1
20260504014345 55 211 0.0 3.5 0.00 0.00 0.00 60 1012.1
20260504013835 55 221 0.0 0.0 0.00 0.00 0.00 60 1012.0
20260504013353 54 221 0.0 0.0 0.00 0.00 0.00 60 1012.1
20260504012832 54 221 0.0 0.0 0.00 0.00 0.00 60 1012.1
20260504012336 54 221 0.0 0.0 0.00 0.00 0.00 60 1012.1
20260504011839 54 221 0.0 0.0 0.00 0.00 0.00 60 1012.2
20260504011359 54 221 0.0 0.0 0.00 0.00 0.00 60 1012.2
20260504010841 54 221 0.0 0.0 0.00 0.00 0.00 61 1012.2
20260504010344 54 221 0.0 0.0 0.00 0.00 0.00 60 1012.2
20260504005839 55 221 0.0 0.0 0.00 0.00 0.00 60 1012.2
20260504005339 55 221 0.0 0.0 0.00 0.00 0.00 60 1012.3
20260504004839 55 221 0.0 0.0 0.00 0.00 0.00 60 1012.3
20260504004339 55 221 0.0 0.0 0.00 0.00 0.00 60 1012.3
20260504003842 55 221 0.0 0.0 0.00 0.00 0.00 60 1012.3
20260504003345 55 221 0.0 0.9 0.00 0.00 0.00 60 1012.3
20260504002828 55 221 0.0 0.9 0.00 0.00 0.00 60 1012.4
20260504002330 56 221 0.0 0.0 0.00 0.00 0.00 60 1012.3
20260504001829 56 221 0.0 0.9 0.00 0.00 0.00 60 1012.3
20260504001336 56 221 0.0 0.9 0.00 0.00 0.00 60 1012.4
20260504000835 56 221 0.0 0.0 0.00 0.00 0.00 60 1012.4
20260504000335 56 221 0.0 1.7 0.00 0.00 0.00 60 1012.5
20260503235826 56 221 0.0 2.6 0.00 0.00 0.00 61 1012.5
20260503235331 56 221 0.0 1.7 0.00 0.00 0.00 61 1012.5
20260503234854 56 221 0.0 0.9 0.00 0.00 0.00 62 1012.6
20260503234332 56 221 0.0 0.9 0.00 0.00 0.00 62 1012.6
20260503233834 56 221 0.0 0.9 0.00 0.00 0.00 63 1012.6
20260503233334 55 221 0.0 1.7 0.00 0.00 0.00 63 1012.6
20260503232834 55 221 0.0 0.0 0.00 0.00 0.00 63 1012.6
20260503232337 55 221 0.0 0.0 0.00 0.00 0.00 64 1012.7
20260503231856 55 221 0.0 0.0 0.00 0.00 0.00 64 1012.7
20260503231401 55 221 0.0 0.9 0.00 0.00 0.00 64 1012.6
20260503230843 55 221 0.0 0.9 0.00 0.00 0.00 65 1012.7
20260503230339 55 221 0.0 0.0 0.00 0.00 0.00 65 1012.7
20260503225833 55 221 0.0 0.0 0.00 0.00 0.00 65 1012.7
20260503225338 56 221 0.0 0.0 0.00 0.00 0.00 63 1012.7
20260503224837 56 221 0.0 0.0 0.00 0.00 0.00 64 1012.7
20260503224343 56 221 0.0 0.0 0.00 0.00 0.00 63 1012.6
20260503223843 56 221 0.0 0.0 0.00 0.00 0.00 63 1012.7
20260503223347 56 221 0.0 0.0 0.00 0.00 0.00 63 1012.8
20260503222844 56 221 0.0 0.0 0.00 0.00 0.00 64 1012.8
20260503222345 55 221 0.0 0.0 0.00 0.00 0.00 65 1012.8
20260503221845 55 221 0.0 0.0 0.00 0.00 0.00 65 1012.9
20260503221347 55 221 0.0 0.0 0.00 0.00 0.00 65 1012.8
20260503220831 55 221 0.0 0.0 0.00 0.00 0.00 65 1012.8
20260503220347 56 221 0.0 0.0 0.00 0.00 0.00 66 1012.8
20260503215838 56 221 0.0 0.0 0.00 0.00 0.00 64 1012.9
20260503215340 56 221 0.0 0.0 0.00 0.00 0.00 64 1012.9
20260503214859 56 221 0.0 0.0 0.00 0.00 0.00 64 1012.9
20260503214337 57 221 0.0 0.0 0.00 0.00 0.00 64 1012.9
20260503213841 57 221 0.0 0.0 0.00 0.00 0.00 63 1012.9
20260503213344 57 221 0.0 0.0 0.00 0.00 0.00 63 1012.9
20260503212843 58 221 0.0 0.0 0.00 0.00 0.00 63 1012.9
20260503212347 58 221 0.0 0.0 0.00 0.00 0.00 61 1012.8
20260503211907 58 221 0.0 0.0 0.00 0.00 0.00 60 1012.9
20260503211345 58 221 0.0 0.0 0.00 0.00 0.00 59 1012.9
20260503210828 58 221 0.0 0.0 0.00 0.00 0.00 57 1012.9
20260503210335 59 221 0.0 0.0 0.00 0.00 0.00 56 1013.0
20260503205905 59 221 0.0 0.0 0.00 0.00 0.00 56 1013.0
20260503205343 59 221 0.0 0.0 0.00 0.00 0.00 56 1013.0
20260503204843 59 221 0.0 0.0 0.00 0.00 0.00 55 1013.0
20260503204400 60 221 0.0 0.0 0.00 0.00 0.00 55 1012.9
20260503203843 60 221 0.0 0.0 0.00 0.00 0.00 54 1012.9
20260503203329 60 221 0.0 0.0 0.00 0.00 0.00 53 1012.9
20260503202852 61 221 0.0 0.0 0.00 0.00 0.00 54 1012.8
20260503202332 61 221 0.0 0.0 0.00 0.00 0.00 53 1012.9
20260503201831 61 221 0.0 0.0 0.00 0.00 0.00 53 1012.9
20260503201332 62 221 0.0 0.0 0.00 0.00 0.00 52 1012.9
20260503200831 62 221 0.0 0.0 0.00 0.00 0.00 50 1012.9
20260503200336 63 221 0.0 0.0 0.00 0.00 0.00 50 1012.9
20260503195335 64 221 0.0 0.0 0.00 0.00 0.00 49 1012.9
20260503194905 64 221 0.0 0.0 0.00 0.00 0.00 48 1013.0
20260503194346 64 221 0.0 0.0 0.00 0.00 0.00 48 1013.0
20260503193845 64 221 0.0 0.9 0.00 0.00 0.00 47 1013.0
20260503193346 64 221 0.0 1.7 0.00 0.00 0.00 48 1013.0
20260503192830 64 221 0.0 2.6 0.00 0.00 0.00 48 1013.0
20260503192335 64 221 0.0 1.7 0.00 0.00 0.00 48 1012.9
20260503191854 64 221 0.9 1.7 0.00 0.00 0.00 48 1012.9
20260503191333 64 221 0.0 0.0 0.00 0.00 0.00 48 1012.9
20260503190852 64 221 0.0 0.0 0.00 0.00 0.00 48 1012.8
20260503190331 65 221 0.0 0.0 0.00 0.00 0.00 47 1012.9
20260503185843 65 221 0.0 0.0 0.00 0.00 0.00 47 1012.9
20260503185346 65 221 0.0 0.0 0.00 0.00 0.00 46 1012.8
20260503184846 65 221 0.0 0.0 0.00 0.00 0.00 46 1012.8
20260503184348 66 221 0.0 0.0 0.00 0.00 0.00 45 1012.8
20260503183830 67 221 0.0 0.0 0.00 0.00 0.00 44 1012.7
20260503183333 67 221 0.0 0.0 0.00 0.00 0.00 43 1012.7
20260503182832 68 221 0.0 0.0 0.00 0.00 0.00 42 1012.7
20260503182335 69 221 0.0 0.0 0.00 0.00 0.00 41 1012.6
20260503181837 70 221 0.0 0.0 0.00 0.00 0.00 39 1012.6
20260503181355 71 221 0.0 0.0 0.00 0.00 0.00 38 1012.6
20260503180829 72 221 0.0 0.0 0.00 0.00 0.00 37 1012.6
20260503180329 73 221 0.0 0.0 0.00 0.00 0.00 36 1012.5
20260503175828 73 221 0.0 0.0 0.00 0.00 0.00 35 1012.6
20260503175352 74 221 0.0 0.9 0.00 0.00 0.00 35 1012.5
20260503174831 75 221 0.0 1.7 0.00 0.00 0.00 33 1012.4
20260503174332 75 221 0.0 1.7 0.00 0.00 0.00 33 1012.4
20260503173831 76 221 0.9 1.7 0.00 0.00 0.00 32 1012.4
20260503173351 76 221 0.0 1.7 0.00 0.00 0.00 32 1012.4
20260503172853 76 221 0.0 2.6 0.00 0.00 0.00 31 1012.4
20260503172334 77 221 0.9 2.6 0.00 0.00 0.00 31 1012.4